TimeAKST,TemperatureF,Dew PointF,Humidity,Sea Level PressureIn,VisibilityMPH,Wind Direction,Wind SpeedMPH,Gust SpeedMPH,PrecipitationIn,Events,Conditions,WindDirDegrees,DateUTC
12:53 AM,33.1,30.9,92,29.68,10.0,Calm,Calm,-,N/A,,Scattered Clouds,0,2012-12-07 09:53:00
1:04 AM,33.8,30.2,87,29.67,10.0,Calm,Calm,-,N/A,,Mostly Cloudy,0,2012-12-07 10:04:00
1:28 AM,32.0,30.2,93,29.68,10.0,Calm,Calm,-,N/A,,Scattered Clouds,0,2012-12-07 10:28:00
1:48 AM,30.2,30.2,100,29.69,1.8,Calm,Calm,-,N/A,,Partly Cloudy,0,2012-12-07 10:48:00
1:53 AM,30.9,30.0,96,29.69,1.0,Calm,Calm,-,N/A,,Scattered Clouds,0,2012-12-07 10:53:00
2:00 AM,30.2,30.2,100,29.69,2.0,Calm,Calm,-,N/A,,Mostly Cloudy,0,2012-12-07 11:00:00
2:08 AM,32.0,30.2,93,29.70,5.0,Calm,Calm,-,N/A,,Mostly Cloudy,0,2012-12-07 11:08:00
2:16 AM,32.0,30.2,93,29.70,2.5,Calm,Calm,-,0.00,Snow,Light Snow,0,2012-12-07 11:16:00
2:20 AM,32.0,30.2,93,29.70,1.5,Calm,Calm,-,0.00,Snow,Light Snow,0,2012-12-07 11:20:00
3:01 AM,32.0,30.2,93,29.71,2.5,Calm,Calm,-,0.00,Snow,Light Snow,0,2012-12-07 12:01:00
3:09 AM,32.0,30.2,93,29.71,8.0,Calm,Calm,-,0.00,Snow,Light Snow,0,2012-12-07 12:09:00
3:23 AM,30.2,30.2,100,29.72,10.0,NE,3.5,-,0.00,,Mostly Cloudy,40,2012-12-07 12:23:00
3:53 AM,32.0,32.0,100,29.73,6.0,Calm,Calm,-,0.00,Snow,Light Snow,0,2012-12-07 12:53:00
4:04 AM,32.0,30.2,93,29.74,2.5,Calm,Calm,-,0.00,Snow,Light Snow,0,2012-12-07 13:04:00
4:12 AM,32.0,32.0,100,29.73,1.5,Calm,Calm,-,0.00,Snow,Light Snow,0,2012-12-07 13:12:00
4:17 AM,32.0,30.2,93,29.74,3.0,Variable,4.6,-,0.00,Snow,Light Snow,0,2012-12-07 13:17:00
4:49 AM,32.0,30.2,93,29.74,10.0,Calm,Calm,-,0.00,,Scattered Clouds,0,2012-12-07 13:49:00
4:53 AM,32.0,30.0,92,29.74,10.0,Calm,Calm,-,0.00,,Partly Cloudy,0,2012-12-07 13:53:00
5:53 AM,32.0,30.0,92,29.76,10.0,Calm,Calm,-,N/A,,Mostly Cloudy,0,2012-12-07 14:53:00
6:39 AM,30.2,30.2,100,29.77,2.0,Calm,Calm,-,0.00,Snow,Light Snow,0,2012-12-07 15:39:00
6:53 AM,32.0,30.9,96,29.78,3.0,Calm,Calm,-,0.00,Snow,Light Snow,0,2012-12-07 15:53:00
7:53 AM,32.0,30.9,96,29.79,2.5,Calm,Calm,-,0.00,Snow,Light Snow,0,2012-12-07 16:53:00
8:02 AM,32.0,30.2,93,29.79,1.5,Calm,Calm,-,0.00,Snow,Light Snow,0,2012-12-07 17:02:00
8:24 AM,32.0,32.0,100,29.81,1.2,Calm,Calm,-,0.00,Snow,Light Snow,0,2012-12-07 17:24:00
8:35 AM,32.0,30.2,93,29.81,0.8,Calm,Calm,-,0.00,Snow,Light Snow,0,2012-12-07 17:35:00
8:44 AM,32.0,30.2,93,29.82,0.5,Calm,Calm,-,0.00,Fog-Snow,Snow,0,2012-12-07 17:44:00
8:53 AM,32.0,32.0,100,29.82,0.2,Calm,Calm,-,0.00,Fog-Snow,Snow,0,2012-12-07 17:53:00
9:18 AM,32.0,30.2,93,29.83,0.8,Calm,Calm,-,0.00,Snow,Light Snow,0,2012-12-07 18:18:00
9:28 AM,32.0,30.2,93,29.83,1.0,Calm,Calm,-,0.00,Snow,Light Snow,0,2012-12-07 18:28:00
9:41 AM,32.0,30.2,93,29.84,1.0,Calm,Calm,-,0.00,Snow,Light Snow,0,2012-12-07 18:41:00
9:53 AM,32.0,32.0,100,29.85,1.8,Calm,Calm,-,0.00,Snow,Light Snow,0,2012-12-07 18:53:00
10:12 AM,33.8,32.0,93,29.86,3.0,Calm,Calm,-,0.00,Snow,Light Snow,0,2012-12-07 19:12:00
10:53 AM,33.1,32.0,96,29.87,6.0,Calm,Calm,-,0.00,Snow,Light Snow,0,2012-12-07 19:53:00
11:06 AM,33.8,32.0,93,29.87,2.0,Calm,Calm,-,0.00,Snow,Light Snow,0,2012-12-07 20:06:00
11:32 AM,33.8,33.8,100,29.88,5.0,Calm,Calm,-,0.00,Snow,Light Snow,0,2012-12-07 20:32:00
11:53 AM,34.0,33.1,96,29.89,10.0,Calm,Calm,-,0.00,,Overcast,0,2012-12-07 20:53:00
12:11 PM,33.8,30.2,87,29.89,10.0,Calm,Calm,-,N/A,,Overcast,0,2012-12-07 21:11:00
12:19 PM,33.8,32.0,93,29.90,10.0,Calm,Calm,-,N/A,,Overcast,0,2012-12-07 21:19:00
12:53 PM,32.0,30.9,96,29.91,10.0,Calm,Calm,-,N/A,,Overcast,0,2012-12-07 21:53:00
1:01 PM,33.8,30.2,87,29.90,10.0,Calm,Calm,-,0.01,,Mostly Cloudy,0,2012-12-07 22:01:00
1:42 PM,32.0,30.2,93,29.91,1.2,Calm,Calm,-,0.01,,Partly Cloudy,0,2012-12-07 22:42:00
1:51 PM,30.2,30.2,100,29.91,0.8,Calm,Calm,-,0.01,,Mostly Cloudy,0,2012-12-07 22:51:00
1:53 PM,30.9,30.0,96,29.92,0.5,Calm,Calm,-,0.01,Fog,Light Freezing Fog,0,2012-12-07 22:53:00
2:01 PM,32.0,30.2,93,29.92,0.5,Calm,Calm,-,0.01,Fog,Fog,0,2012-12-07 23:01:00
2:17 PM,32.0,30.2,93,29.92,2.0,Calm,Calm,-,0.01,,Overcast,0,2012-12-07 23:17:00
2:25 PM,32.0,30.2,93,29.92,10.0,Calm,Calm,-,0.01,,Overcast,0,2012-12-07 23:25:00
2:49 PM,32.0,30.2,93,29.93,1.8,North,3.5,-,0.01,,Overcast,10,2012-12-07 23:49:00
2:53 PM,32.0,30.0,92,29.94,0.8,North,5.8,-,0.01,,Overcast,360,2012-12-07 23:53:00
3:04 PM,32.0,30.2,93,29.93,1.5,North,5.8,-,N/A,,Overcast,10,2012-12-08 00:04:00
3:07 PM,32.0,30.2,93,29.93,3.0,North,4.6,-,N/A,,Overcast,10,2012-12-08 00:07:00
3:13 PM,32.0,30.2,93,29.94,1.5,NNE,4.6,-,N/A,,Overcast,20,2012-12-08 00:13:00
3:15 PM,32.0,30.2,93,29.94,0.8,NNE,4.6,-,N/A,,Overcast,20,2012-12-08 00:15:00
3:46 PM,30.2,30.2,100,29.95,1.0,North,4.6,-,N/A,,Mist,360,2012-12-08 00:46:00
3:53 PM,30.9,30.0,96,29.96,1.2,Calm,Calm,-,N/A,,Overcast,0,2012-12-08 00:53:00
4:18 PM,30.2,30.2,100,29.97,2.0,Calm,Calm,-,N/A,,Overcast,0,2012-12-08 01:18:00
4:39 PM,30.2,28.4,93,29.98,1.8,North,3.5,-,N/A,,Overcast,10,2012-12-08 01:39:00
4:47 PM,30.2,28.4,93,29.98,0.8,Calm,Calm,-,N/A,,Overcast,0,2012-12-08 01:47:00
4:53 PM,30.0,28.9,96,29.98,0.5,Calm,Calm,-,N/A,Fog,Light Freezing Fog,0,2012-12-08 01:53:00
5:53 PM,28.9,28.0,96,30.01,0.5,Calm,Calm,-,N/A,Fog,Light Freezing Fog,0,2012-12-08 02:53:00
6:29 PM,28.4,26.6,93,30.02,1.0,Calm,Calm,-,N/A,,Mist,0,2012-12-08 03:29:00
6:37 PM,28.4,26.6,93,30.03,2.0,Calm,Calm,-,N/A,,Overcast,0,2012-12-08 03:37:00
6:45 PM,28.4,26.6,93,30.03,1.0,Calm,Calm,-,N/A,,Mist,0,2012-12-08 03:45:00
6:53 PM,28.9,28.0,96,30.04,0.2,Calm,Calm,-,N/A,Fog,Light Freezing Fog,0,2012-12-08 03:53:00
7:44 PM,26.6,26.6,100,30.04,1.5,Calm,Calm,-,N/A,,Mostly Cloudy,0,2012-12-08 04:44:00
7:53 PM,27.0,25.0,92,30.04,5.0,Calm,Calm,-,N/A,,Mostly Cloudy,0,2012-12-08 04:53:00
8:02 PM,28.4,24.8,86,30.05,1.8,Calm,Calm,-,N/A,,Mostly Cloudy,0,2012-12-08 05:02:00
8:06 PM,28.4,24.8,86,30.05,3.0,Calm,Calm,-,N/A,,Mostly Cloudy,0,2012-12-08 05:06:00
8:33 PM,28.4,24.8,86,30.06,10.0,Calm,Calm,-,N/A,,Partly Cloudy,0,2012-12-08 05:33:00
8:53 PM,28.0,25.0,88,30.07,3.0,Calm,Calm,-,N/A,,Clear,0,2012-12-08 05:53:00
9:00 PM,28.4,24.8,86,30.07,2.5,Calm,Calm,-,N/A,,Scattered Clouds,0,2012-12-08 06:00:00
9:02 PM,28.4,24.8,86,30.07,4.0,Calm,Calm,-,N/A,,Mostly Cloudy,0,2012-12-08 06:02:00
9:16 PM,28.4,24.8,86,30.08,4.0,Calm,Calm,-,N/A,,Scattered Clouds,0,2012-12-08 06:16:00
9:53 PM,27.0,25.0,92,30.09,8.0,Calm,Calm,-,N/A,,Clear,0,2012-12-08 06:53:00
10:53 PM,27.0,24.1,89,30.09,8.0,Calm,Calm,-,N/A,,Clear,0,2012-12-08 07:53:00
11:53 PM,27.0,25.0,92,30.10,10.0,Calm,Calm,-,N/A,,Clear,0,2012-12-08 08:53:00